CAPE
0 0 0 0 0 0 0 0 0 0 0 0 0 0 0 0 0 0 0 0 0 0 0 0 0 0 0 172 747 1061 1360 1528 1574 1777 2107 2237 2305 2380 2235 1912 1669 1558 1743 1727 1720 1736 1724 1671 1608 1601 1631 1758 1845 1925 1897 1834 1808 1771 1776 1722 1686 1677 1668 1622 1512 1475 1318 1300 1241 1123 1190 1056 1077 1007 1027 1182 1395 1492 1463 1403 1346 1302 1267 1226 1144 1034
0 0 0 0 0 0 0 0 0 0 0 0 0 0 0 0 0 0 0 0 0 0 0 0 0 0 0 228 1004 1135 1283 1477 1598 1782 1970 2098 2208 2302 2063 1723 1503 1479 1595 1696 1696 1683 1638 1628 1663 1724 1788 1777 1774 1873 1849 1765 1735 1705 1733 1703 1607 1531 1517 1436 1347 1278 1243 1291 1246 1164 1153 1125 1091 1152 1121 1089 1091 1160 1395 1422 1326 1316 1323 1328 1328 1318
0 0 0 0 0 0 0 0 0 0 0 0 0 0 0 0 0 0 0 0 0 0 0 0 0 0 0 306 1183 1227 1286 1468 1562 1760 1882 2004 2142 2145 1906 1642 1494 1486 1597 1712 1726 1721 1681 1560 1485 1512 1531 1515 1499 1538 1547 1480 1485 1456 1474 1481 1491 1478 1355 1344 1391 1393 1343 1225 1288 1431 1369 1378 1433 1395 1383 1392 1280 1316 1410 1436 1410 1407 1418 1438 1495 1452
0 0 0 0 0 0 0 0 0 0 0 0 0 0 0 0 0 0 0 0 0 0 0 0 0 0 385 1040 1238 1273 1204 1225 1461 1705 1874 2055 2015 1919 1745 1482 1431 1619 1801 1764 1746 1808 1705 1600 1520 1587 1653 1658 1565 1520 1505 1513 1514 1536 1472 1405 1376 1407 1351 1387 1417 1477 1495 1416 1464 1482 1425 1366 1326 1321 1279 1280 1221 1272 1428 1524 1550 1512 1515 1590 1610 1487
0 0 0 0 0 0 0 0 0 0 0 0 0 0 0 0 0 0 0 0 0 0 0 0 0 287 652 1045 1292 1198 1140 1282 1468 1648 1744 1678 1643 1562 1409 1366 1559 1786 1816 1743 1761 1778 1743 1664 1536 1458 1424 1500 1487 1394 1353 1329 1372 1414 1414 1319 1318 1315 1262 1212 1152 1228 1118 1270 1365 1274 1154 1220 1172 1181 1079 1155 1147 1110 1072 1194 1235 1383 1536 1589 1505 1393
0 0 0 0 0 0 0 0 0 0 0 0 0 0 0 0 0 0 0 0 0 0 0 0 0 168 793 978 1148 1342 1236 1368 1440 1462 1589 1752 1759 1776 1666 1553 1607 1724 1686 1746 1748 1688 1576 1421 1337 1272 1313 1296 1223 1260 1184 1134 1125 1182 1138 1180 1125 1140 1162 1078 1176 1268 1292 1326 1414 1344 1132 1073 969 915 931 1106 1190 1102 1029 1063 1194 1171 1322 1408 1425 1431
0 0 0 0 0 0 0 0 0 0 0 0 0 0 0 0 0 0 0 0 0 0 0 0 0 581 1089 1063 1175 1185 1284 1319 1387 1528 1743 1793 1799 1756 1696 1645 1675 1684 1630 1621 1649 1565 1559 1384 1206 1030 973 1016 1016 988 1021 1102 1113 1126 1141 1098 1012 997 984 1010 1050 1101 1131 1200 1130 1115 1036 976 938 901 850 926 1000 1102 1099 1044 1118 1307 1316 1306 1385 1434
0 0 0 0 0 0 0 0 0 0 0 0 0 0 0 0 0 0 0 0 0 0 0 0 102 784 1042 1139 1188 1126 1180 1306 1323 1535 1726 1764 1745 1762 1741 1701 1678 1653 1548 1552 1379 1464 1526 1302 940 859 843 821 816 863 877 945 1003 1039 1074 1093 1072 970 914 848 897 986 1051 1071 1037 1024 936 907 892 824 840 820 839 884 976 1041 1041 975 974 1145 1234 1188
0 0 0 0 0 0 0 0 0 0 0 0 0 0 0 0 0 0 0 0 0 0 0 0 268 535 802 1124 1178 1088 1142 1216 1248 1483 1586 1635 1735 1800 1812 1771 1731 1690 1570 1415 1361 1416 1449 1301 951 853 865 815 832 975 1023 969 968 1011 975 946 889 922 880 807 768 832 871 898 918 875 903 890 846 823 829 810 820 844 891 880 908 853 883 875 842 762
0 0 0 0 0 0 0 0 0 0 0 0 0 0 0 0 0 0 0 0 0 0 0 0 82 228 735 1142 1082 995 1085 1045 1226 1336 1435 1500 1604 1694 1699 1684 1688 1626 1500 1472 1426 1343 1226 996 921 939 897 900 993 842 919 958 895 1056 999 954 939 994 893 729 616 684 723 703 706 824 842 814 850 812 776 766 818 862 894 798 690 662 608 690 661 471
0 0 0 0 0 0 0 0 0 0 0 0 0 0 0 0 0 0 0 0 0 0 0 1 43 220 655 986 1162 921 1043 1158 1237 1303 1350 1345 1420 1513 1580 1576 1595 1584 1444 1398 1334 1288 1130 976 913 813 833 702 859 474 698 589 414 535 710 747 824 873 804 654 600 565 660 727 713 724 767 813 762 685 593 569 736 782 835 789 734 549 194 11 2 0
0 0 0 0 0 0 0 0 0 0 0 0 0 0 0 0 2 2 0 0 0 0 0 0 40 88 252 732 1011 1108 1205 1113 1071 1144 1212 1212 1199 1200 1240 1288 1397 1385 1433 1359 1310 1202 1089 918 807 716 570 454 552 385 268 198 324 512 512 528 508 528 513 575 600 623 588 722 718 655 667 647 546 367 325 509 614 564 400 231 214 45 10 4 0 0
0 0 0 0 0 0 0 0 0 0 0 0 0 0 0 0 5 3 0 0 0 0 0 0 71 125 77 331 979 1114 1240 1197 1098 1188 1278 1279 1279 1248 1229 1160 1094 1172 1191 1140 1117 1062 943 879 737 522 475 540 341 205 346 415 404 450 421 438 403 404 354 366 348 375 428 476 511 499 456 396 308 330 38 25 396 393 283 103 205 146 102 6 88 125
0 0 0 0 0 0 0 0 0 0 0 0 0 0 0 0 0 0 0 0 0 0 0 0 92 166 349 581 783 1002 1241 1204 1172 1126 1227 1263 1212 1144 1052 970 907 958 972 956 967 887 826 769 622 423 306 374 256 281 271 271 364 380 326 166 334 372 374 356 331 256 0 0 90 142 133 60 12 5 0 0 0 0 14 31 134 104 56 47 48 68
0 0 0 0 0 0 0 0 0 0 0 0 0 0 0 0 0 0 0 0 0 0 0 77 76 63 587 446 824 1017 1268 1087 1049 1040 1050 1004 972 941 922 904 862 903 978 995 954 819 729 627 524 352 215 109 126 388 416 380 360 0 0 0 0 56 67 231 0 0 0 0 0 0 0 0 0 0 1 1 2 3 4 5 9 4 6 6 6 16
0 0 0 0 0 0 0 0 0 0 0 0 0 0 0 0 0 0 0 0 0 0 0 168 441 526 464 752 994 1041 1186 1037 1102 1133 1114 1071 985 1002 950 936 822 847 852 827 814 714 607 561 431 263 169 118 166 417 479 406 337 114 0 0 0 0 0 0 0 0 0 0 0 2 4 7 5 0 0 0 0 1 1 1 1 3 2 2 2 18
0 0 0 0 0 0 0 0 0 0 0 0 0 0 0 0 0 5 6 0 0 0 220 406 404 240 601 772 1108 1028 936 848 787 886 886 831 719 780 793 746 741 733 669 580 582 578 521 434 296 166 94 58 326 465 429 356 309 1 0 0 0 0 0 0 0 0 0 0 0 4 6 5 0 1 5 5 2 0 0 1 1 1 1 2 1 1
0 0 0 0 0 0 0 0 0 0 0 0 0 0 0 0 2 8 4 1 4 6 312 307 503 486 640 489 902 1009 837 747 716 714 815 854 875 928 869 794 780 760 632 503 446 422 368 279 181 72 32 17 352 395 339 280 36 0 0 0 0 0 0 0 0 0 0 3 1 3 4 3 0 0 0 2 5 0 0 0 0 0 0 0 0 1
0 0 0 0 0 0 0 0 0 0 0 0 0 0 0 0 11 12 6 7 1 6 328 295 526 566 570 447 649 870 753 618 652 758 803 843 930 923 808 721 636 599 544 443 392 342 292 216 77 30 0 222 274 253 2 2 2 0 0 0 0 0 4 9 9 0 0 0 0 0 0 0 0 0 0 0 1 1 0 2 1 0 0 0 0 0
0 0 0 0 0 0 0 0 0 0 0 0 0 0 0 0 0 0 0 0 0 151 292 342 527 355 188 429 532 674 788 676 619 670 684 756 782 730 657 679 642 608 508 311 282 196 143 69 12 1 203 210 191 2 3 2 1 0 0 1 2 6 12 11 3 0 0 0 0 0 0 0 0 0 0 0 0 2 3 4 4 3 0 0 0 0
0 0 5 0 0 0 0 0 0 0 0 0 0 0 0 0 0 1 0 0 0 110 189 253 242 123 162 323 386 520 646 636 688 690 644 592 596 566 519 521 483 498 459 247 113 137 45 7 1 4 60 48 2 1 2 1 1 0 1 0 0 0 0 1 0 0 0 0 0 0 0 0 0 0 0 1 5 5 3 0 3 1 0 1 0 0
1 4 8 9 12 3 0 0 0 0 0 0 0 0 0 0 0 1 6 0 24 14 178 102 110 239 421 460 442 508 576 586 563 499 490 465 474 488 432 505 498 474 426 343 112 201 4 1 0 4 4 4 6 1 2 0 0 0 0 0 0 0 0 0 0 0 0 0 0 0 0 0 0 0 1 3 5 4 3 3 0 0 1 1 1 0
0 5 12 9 14 0 0 0 0 0 0 0 0 0 0 0 0 0 0 1 0 103 137 101 131 156 459 434 426 496 551 606 598 508 447 422 466 453 449 464 510 496 465 397 319 137 2 0 2 4 4 5 4 0 0 0 0 0 0 0 0 0 0 0 0 0 0 0 0 0 0 2 3 3 2 3 4 5 4 2 0 0 0 0 0 2
600 3 9 4 9 11 0 0 0 0 0 0 0 0 0 4 11 6 0 0 77 283 179 211 223 311 337 489 472 487 567 668 638 604 510 455 410 433 422 434 537 457 360 282 17 3 0 1 5 2 3 3 1 1 0 0 0 0 0 0 0 0 0 0 0 0 0 0 0 0 4 5 4 6 5 5 6 6 4 2 0 0 0 0 0 0
3 0 0 4 2 5 2 0 0 0 0 0 0 0 0 1 11 22 6 1 118 202 228 4 55 349 519 537 502 478 560 609 595 540 508 466 431 441 466 506 469 374 287 85 3 0 0 2 2 2 2 2 1 0 0 0 0 0 0 0 0 0 0 0 0 0 0 0 0 1 5 8 6 5 5 5 5 5 2 1 0 0 0 0 0 0
3 2 1 2 2 9 5 7 0 0 0 0 0 0 0 0 2 8 7 7 0 155 211 17 209 523 546 584 479 449 488 573 570 529 479 387 186 188 442 408 395 347 276 39 0 0 1 0 2 2 2 2 1 0 0 0 0 0 0 0 0 0 0 0 0 0 0 0 0 0 2 5 5 5 4 4 2 0 0 0 0 0 0 0 0 0
14 4 0 2 0 0 0 0 0 0 0 0 0 0 0 0 0 0 1 2 0 148 153 184 318 623 430 526 574 441 497 483 457 475 467 403 180 216 343 376 132 213 132 62 0 1 3 2 2 2 2 2 1 0 0 0 0 0 0 0 0 0 0 0 0 0 0 0 1 2 1 0 0 0 0 0 0 0 0 0 0 0 0 0 0 0
3 0 0 3 0 0 0 0 0 0 0 0 0 0 0 0 2 1 0 0 174 147 229 260 372 348 481 621 578 437 422 459 501 473 469 421 392 177 172 269 317 207 184 135 12 2 2 1 1 2 1 0 0 0 0 0 0 0 0 0 0 0 0 0 0 0 0 0 2 3 4 3 0 0 0 0 0 0 0 0 0 0 0 0 0 0
12 6 0 3 1 2 129 32 0 0 0 0 2 9 4 4 9 11 3 2 152 89 205 308 272 284 460 595 533 428 382 348 386 430 390 351 310 190 278 222 210 188 218 190 38 1 0 0 0 0 0 0 0 0 0 0 0 0 0 0 0 0 0 0 0 0 0 0 1 1 1 1 1 0 0 0 0 0 0 0 0 0 0 0 0 0
0 0 0 0 65 176 209 180 2 139 390 373 321 374 208 13 17 12 5 141 49 6 363 263 230 226 382 464 442 422 356 313 353 340 215 37 33 31 42 69 96 100 141 135 20 2 3 2 1 0 0 0 0 0 0 0 0 0 0 0 0 0 0 0 0 0 0 0 0 0 0 0 0 0 0 0 0 0 0 0 0 0 0 0 0 0
2 0 157 0 136 213 180 334 312 289 285 251 342 302 341 266 169 127 58 236 224 254 265 259 197 317 283 344 282 310 294 287 277 223 186 134 123 55 19 20 23 2 4 5 7 8 4 0 0 0 0 0 0 0 0 0 0 0 0 0 0 0 0 0 0 0 0 0 0 0 0 0 0 0 0 0 0 0 0 0 0 0 0 0 0 0
1 3 379 0 28 8 185 224 293 230 274 229 224 229 190 293 298 189 181 259 289 345 202 211 139 209 166 209 245 256 307 250 226 161 98 75 94 96 59 26 5 2 2 3 6 7 4 0 0 0 0 0 0 0 0 0 0 0 0 0 0 0 0 0 0 0 0 0 0 0 0 0 0 0 0 0 0 0 0 0 0 0 0 0 0 0
0 2 254 1 4 43 200 219 164 182 63 130 154 130 309 344 304 319 292 232 313 262 224 104 111 161 181 195 206 259 221 214 114 98 52 84 135 146 92 10 3 2 2 2 6 10 8 2 1 0 0 0 0 0 0 0 0 0 0 0 0 0 0 0 0 0 0 0 0 0 0 0 0 0 0 0 0 0 0 0 0 0 0 0 0 0
49 38 50 0 7 17 181 128 86 54 6 9 101 122 228 370 358 238 256 256 272 181 185 221 265 145 178 155 201 208 205 210 291 72 55 59 62 67 19 1 1 1 5 15 22 18 13 5 0 0 0 0 0 0 0 0 0 0 0 0 0 0 0 0 0 0 0 0 0 0 0 0 0 0 0 0 0 0 0 0 0 0 0 0 0 0
211 0 0 206 0 12 126 59 6 6 0 2 21 301 366 338 253 79 216 189 222 216 226 252 220 104 168 212 221 191 188 181 135 41 25 6 16 22 14 14 10 16 32 26 12 8 3 0 0 0 0 0 0 0 0 0 0 0 0 0 0 0 0 0 0 0 0 0 0 0 0 0 0 0 0 0 0 0 0 0 0 0 0 0 0 0
190 160 133 0 52 4 22 41 0 0 30 16 170 342 488 338 260 132 172 160 176 211 251 157 142 172 149 189 174 151 164 238 186 57 18 1 13 10 13 15 13 8 4 0 0 0 0 0 0 0 0 0 0 0 0 0 0 0 0 0 0 0 0 0 0 0 0 0 0 0 0 0 0 0 0 0 0 0 0 0 0 0 0 0 0 0
0 0 2 44 6 0 1 18 2 88 9 32 97 353 398 329 222 100 159 209 205 276 281 202 114 144 134 151 179 160 167 146 95 110 54 4 1 0 0 0 0 0 0 0 0 0 0 0 0 0 0 0 0 0 0 0 0 0 0 0 0 0 0 0 0 0 0 0 0 0 0 0 0 0 0 0 0 0 0 0 0 0 0 0 0 0
0 173 24 17 3 19 12 21 14 6 85 6 6 84 185 169 196 45 173 196 238 277 286 194 76 95 106 153 191 155 111 82 73 82 22 3 4 2 0 0 0 0 0 0 0 0 0 0 0 0 0 0 0 0 0 0 0 0 0 0 0 0 0 0 0 0 0 0 0 0 0 0 0 0 0 0 0 0 0 0 0 0 0 0 0 0
0 87 0 0 69 0 17 0 2 3 0 85 193 45 146 189 80 41 42 44 283 365 299 222 137 81 117 168 192 136 114 124 65 62 12 1 3 4 5 4 2 3 0 0 0 0 0 0 0 0 0 0 0 0 0 0 0 0 0 0 0 0 0 0 0 0 0 0 0 0 0 0 0 0 0 0 0 0 0 0 0 0 0 0 0 0
0 4 0 0 0 0 8 7 10 0 37 113 126 57 86 101 45 33 14 91 202 317 211 168 169 99 82 99 150 113 128 162 124 36 3 1 6 9 6 5 8 4 0 0 0 0 0 0 0 0 0 0 0 0 0 0 0 0 0 0 0 0 0 0 0 0 0 0 0 0 0 0 0 0 0 0 0 0 0 0 0 0 0 0 0 0
0 0 0 0 0 0 0 11 7 2 0 35 160 153 88 50 37 6 0 23 112 205 68 112 156 28 3 62 74 142 16 53 0 0 0 9 7 7 6 8 3 4 2 0 0 0 0 0 0 0 0 0 0 0 0 0 0 0 0 0 0 0 0 0 0 0 0 0 0 0 0 0 0 0 0 0 0 0 0 0 0 0 0 0 0 0
0 0 0 11 1 0 0 36 5 55 7 18 55 71 57 42 13 48 8 22 98 0 0 0 0 0 0 1 31 80 2 44 0 0 0 5 19 14 9 5 5 5 4 2 1 0 0 0 0 0 0 0 0 0 0 0 0 0 0 0 0 0 0 0 0 0 0 0 0 0 0 0 0 0 0 0 0 0 0 0 0 0 0 0 0 0
0 0 0 0 0 0 0 13 21 12 0 0 6 4 2 7 2 0 0 0 0 0 0 0 0 0 0 0 9 10 12 20 31 43 36 70 47 44 12 0 7 7 6 7 6 2 0 0 0 0 0 0 0 0 0 0 0 0 0 0 0 0 0 0 0 0 0 0 0 0 0 0 0 0 0 0 0 0 0 0 0 0 0 0 0 0
1 0 0 0 0 20 2 11 17 0 0 0 0 0 0 0 4 0 0 0 0 0 0 0 0 0 0 0 0 5 35 16 45 79 91 77 75 48 18 3 7 6 9 12 6 3 2 1 0 0 0 0 0 0 0 0 0 0 0 0 0 0 0 0 0 0 0 0 0 0 0 0 0 0 0 0 0 0 0 0 0 0 0 0 0 0
0 0 0 19 4 22 13 0 0 0 0 0 0 0 0 0 0 0 0 0 0 0 0 0 0 0 0 0 1 27 8 38 102 116 112 107 124 69 22 0 8 15 15 12 4 4 4 4 0 0 0 0 0 0 0 0 0 0 0 0 0 0 0 0 0 0 0 0 0 0 0 0 0 0 0 0 0 0 0 0 0 0 0 0 0 0
0 0 0 0 0 0 0 0 0 0 0 0 0 0 0 0 0 0 0 0 0 0 0 0 0 3 1 1 6 7 17 55 103 86 164 126 76 56 8 3 9 25 15 7 4 4 4 2 0 0 0 0 0 0 0 0 0 0 0 0 0 0 0 0 0 0 0 0 0 0 0 0 0 0 0 0 0 0 0 0 0 0 0 0 0 0
0 0 0 0 0 0 10 0 0 0 0 0 0 0 0 0 0 0 0 0 0 0 0 0 1 0 1 1 2 4 16 53 116 127 154 126 86 38 1 13 30 15 5 6 5 3 4 0 0 0 0 0 0 0 0 0 0 0 0 0 0 0 0 0 0 0 0 0 0 0 0 0 0 0 0 0 0 0 0 0 0 0 0 0 0 0
0 0 6 0 0 0 0 0 0 0 0 0 0 0 0 0 0 0 0 0 0 0 0 0 1 2 0 0 2 7 23 60 85 115 101 69 16 0 13 36 31 6 7 10 8 5 1 0 0 0 0 0 0 0 0 0 0 0 0 0 0 0 0 0 0 0 0 0 0 0 0 0 0 0 0 0 0 0 0 0 0 0 0 0 0 0
0 0 38 0 0 0 0 0 0 0 0 0 0 0 0 0 0 0 4 7 0 0 0 1 1 8 8 7 1 10 25 64 92 58 10 46 58 51 57 17 6 11 10 10 10 5 0 0 0 0 0 0 0 0 0 0 0 0 0 0 0 0 0 0 0 0 0 0 0 0 0 0 0 0 0 0 0 0 0 0 0 0 0 0 0 0
0 0 0 0 0 0 0 0 0 0 0 0 0 0 0 0 0 5 14 13 7 5 2 0 0 0 0 0 12 20 4 2 52 84 69 60 48 30 7 6 12 10 10 7 2 0 0 0 0 0 0 0 0 0 0 0 0 0 0 0 0 0 0 0 0 0 0 0 0 0 0 0 0 0 0 0 0 0 0 0 0 0 0 0 0 0
0 0 0 0 0 0 0 0 0 0 0 0 0 0 0 0 0 0 6 11 9 0 0 0 0 0 0 3 22 3 5 14 37 51 54 32 5 4 8 15 18 15 3 0 0 0 0 0 0 0 0 0 0 0 0 0 0 0 0 0 0 0 0 0 0 0 0 0 0 0 0 0 0 0 0 0 0 0 0 0 0 0 0 0 0 0
Wind_Speed
nan nan nan nan nan nan nan nan nan nan nan nan nan nan nan nan nan nan nan nan nan nan nan nan nan nan nan 26 24 26 29 31 33 34 32 29 28 30 29 30 31 30 26 24 29 29 29 28 26 24 23 23 22 20 19 18 19 20 22 23 22 19 18 18 17 15 14 13 13 12 10 9 10 10 11 11 13 14 16 18 19 18 18 17 17 17
nan nan nan nan nan nan nan nan nan nan nan nan nan nan nan nan nan nan nan nan nan nan nan nan nan nan nan 31 27 28 29 30 32 34 34 32 31 30 31 28 27 26 26 29 29 29 29 28 27 24 23 21 22 19 17 17 18 21 21 22 21 20 18 17 14 12 12 12 12 12 10 11 10 11 12 11 13 15 16 17 18 18 19 18 18 18
nan nan nan nan nan nan nan nan nan nan nan nan nan nan nan nan nan nan nan nan nan nan nan nan nan nan nan 33 31 29 26 27 29 35 36 38 36 34 32 27 24 25 24 24 26 26 28 27 25 23 22 20 19 19 18 17 20 21 21 21 20 19 18 15 14 14 12 10 9 10 10 13 11 12 12 13 14 16 17 17 18 19 20 21 21 21
nan nan nan nan nan nan nan nan nan nan nan nan nan nan nan nan nan nan nan nan nan nan nan nan nan nan 43 38 37 34 32 33 35 38 40 38 40 39 36 29 25 24 23 22 22 25 27 27 25 25 23 20 20 20 19 19 20 20 20 20 19 17 15 15 14 12 11 10 9 9 10 11 13 12 13 14 14 16 18 17 18 19 21 23 23 24
nan nan nan nan nan nan nan nan nan nan nan nan nan nan nan nan nan nan nan nan nan nan nan nan nan 38 37 34 35 38 38 41 41 45 45 41 40 39 37 31 24 23 24 24 25 25 28 27 26 26 26 24 23 21 21 21 20 20 20 19 18 16 15 14 12 11 11 11 11 12 13 14 14 15 15 15 14 16 19 20 20 20 22 23 23 24
nan nan nan nan nan nan nan nan nan nan nan nan nan nan nan nan nan nan nan nan nan nan nan nan nan 36 40 32 30 31 37 40 39 45 44 41 40 38 35 29 24 24 23 25 26 28 30 29 27 28 28 27 26 26 24 25 25 25 25 25 24 23 21 19 16 13 13 12 12 15 15 14 15 13 14 14 14 15 17 16 17 19 22 22 21 22
nan nan nan nan nan nan nan nan nan nan nan nan nan nan nan nan nan nan nan nan nan nan nan nan nan 34 39 37 34 35 39 39 39 42 41 39 37 35 31 23 23 25 25 25 27 30 32 30 31 29 29 28 29 26 25 27 28 28 27 27 26 24 22 20 19 19 18 18 18 16 15 15 15 16 16 16 16 16 16 17 16 16 17 18 19 20
nan nan nan nan nan nan nan nan nan nan nan nan nan nan nan nan nan nan nan nan nan nan nan nan 25 27 32 33 35 37 43 42 42 41 40 38 38 34 26 23 24 22 23 25 27 31 32 31 32 31 30 31 28 25 27 28 28 28 27 28 27 25 24 21 20 22 20 20 19 19 19 19 20 19 18 17 17 18 18 18 17 16 16 18 18 17
nan nan nan nan nan nan nan nan nan nan nan nan nan nan nan nan nan nan nan nan nan nan nan nan 28 34 30 31 32 37 43 41 41 41 41 40 38 33 28 25 23 20 21 24 26 30 33 34 33 32 31 30 28 26 28 27 28 27 27 28 28 27 24 22 22 23 22 21 20 20 20 21 20 20 19 18 20 21 20 20 18 19 19 19 20 21
nan nan nan nan nan nan nan nan nan nan nan nan nan nan nan nan nan nan nan nan nan nan nan nan nan 35 32 29 30 28 36 36 38 39 39 38 36 33 30 28 26 24 25 28 29 29 30 33 32 31 30 32 27 27 28 26 28 27 26 27 27 25 23 23 23 24 24 22 21 22 23 23 22 21 20 22 22 21 21 21 19 17 19 20 19 20
nan nan nan nan nan nan nan nan nan nan nan nan nan nan nan nan nan nan nan nan nan nan nan nan nan 32 31 25 25 26 26 35 38 38 37 36 34 31 29 29 28 28 29 30 31 29 30 29 29 29 30 30 29 28 28 29 30 28 27 27 28 24 24 24 24 23 24 23 23 24 24 24 24 23 23 23 22 21 21 21 19 18 17 nan nan nan
nan nan nan nan nan nan nan nan nan nan nan nan nan nan nan nan nan nan nan nan nan nan nan nan nan nan 35 27 23 26 32 40 39 38 36 35 32 30 28 29 30 29 30 31 32 31 31 30 28 29 31 30 29 31 31 30 31 30 29 28 28 26 25 24 22 22 23 24 25 26 25 26 26 25 24 23 21 21 21 20 19 nan nan nan nan nan
nan nan nan nan nan nan nan nan nan nan nan nan nan nan nan nan nan nan nan nan nan nan nan nan nan 35 nan 34 30 29 28 29 34 35 35 35 35 34 34 34 30 28 27 27 28 29 30 31 29 33 33 30 32 31 30 31 31 29 27 28 28 25 23 23 23 23 23 26 27 26 26 27 26 25 nan nan 23 22 21 21 20 19 18 nan nan 18
nan nan nan nan nan nan nan nan nan nan nan nan nan nan nan nan nan nan nan nan nan nan nan nan nan 39 41 40 35 30 28 33 35 37 38 37 36 37 38 37 32 28 26 24 24 26 29 29 30 33 33 31 30 30 30 29 28 26 26 26 27 23 21 23 24 25 nan nan nan 25 26 nan nan nan nan nan nan nan nan nan 21 20 nan nan nan nan
nan nan nan nan nan nan nan nan nan nan nan nan nan nan nan nan nan nan nan nan nan nan nan nan nan nan 45 42 40 37 40 43 38 38 38 37 36 37 37 36 33 31 29 27 26 26 27 28 30 32 33 31 31 30 29 28 28 nan nan nan nan nan nan 25 nan nan nan nan nan nan nan nan nan nan nan nan nan nan nan nan nan nan nan nan nan nan
nan nan nan nan nan nan nan nan nan nan nan nan nan nan nan nan nan nan nan nan nan nan nan 40 44 49 46 45 49 45 46 45 42 41 40 38 35 34 34 33 32 31 30 29 28 27 27 28 30 31 33 33 31 30 29 30 27 25 nan nan nan nan nan nan nan nan nan nan nan nan nan nan nan nan nan nan nan nan nan nan nan nan nan nan nan nan
nan nan nan nan nan nan nan nan nan nan nan nan nan nan nan nan nan nan nan nan nan nan 40 39 42 46 45 51 47 47 48 47 46 44 43 40 35 31 29 28 29 30 31 30 30 29 28 29 31 32 nan nan 32 30 29 26 24 nan nan nan nan nan nan nan nan nan nan nan nan nan nan nan nan nan nan nan nan nan nan nan nan nan nan nan nan nan
nan nan nan nan nan nan nan nan nan nan nan nan nan nan nan nan nan nan nan nan nan nan 39 40 37 38 41 43 43 49 52 47 47 44 43 39 33 31 28 26 27 30 32 32 33 32 29 29 32 nan nan nan 32 31 29 26 nan nan nan nan nan nan nan nan nan nan nan nan nan nan nan nan nan nan nan nan nan nan nan nan nan nan nan nan nan nan
nan nan nan nan nan nan nan nan nan nan nan nan nan nan nan nan nan nan nan nan nan nan 40 41 38 37 39 45 44 46 46 41 42 41 40 35 30 29 29 29 28 29 31 32 33 33 30 30 nan nan nan 34 33 31 nan nan nan nan nan nan nan nan nan nan nan nan nan nan nan nan nan nan nan nan nan nan nan nan nan nan nan nan nan nan nan nan
nan nan nan nan nan nan nan nan nan nan nan nan nan nan nan nan nan nan nan nan nan 44 42 39 36 40 43 44 40 39 38 38 41 40 37 33 29 28 30 30 28 27 29 30 32 32 30 nan nan nan 34 35 33 nan nan nan nan nan nan nan nan nan nan nan nan nan nan nan nan nan nan nan nan nan nan nan nan nan nan nan nan nan nan nan nan nan
nan nan nan nan nan nan nan nan nan nan nan nan nan nan nan nan nan nan nan nan nan 42 42 41 37 42 42 40 36 35 35 38 39 39 36 34 31 30 31 31 30 30 29 29 29 31 nan nan nan nan nan nan nan nan nan nan nan nan nan nan nan nan nan nan nan nan nan nan nan nan nan nan nan nan nan nan nan nan nan nan nan nan nan nan nan nan
nan nan nan nan nan nan nan nan nan nan nan nan nan nan nan nan nan nan nan nan nan nan 43 43 39 43 38 37 36 35 35 36 36 39 36 35 32 31 31 32 31 30 29 29 29 28 nan nan nan nan nan nan nan nan nan nan nan nan nan nan nan nan nan nan nan nan nan nan nan nan nan nan nan nan nan nan nan nan nan nan nan nan nan nan nan nan
nan nan nan nan nan nan nan nan nan nan nan nan nan nan nan nan nan nan nan nan nan 45 43 39 42 37 37 35 36 36 37 37 37 41 39 36 35 32 32 32 30 30 30 30 29 30 nan nan nan nan nan nan nan nan nan nan nan nan nan nan nan nan nan nan nan nan nan nan nan nan nan nan nan nan nan nan nan nan nan nan nan nan nan nan nan nan
42 nan nan nan nan nan nan nan nan nan nan nan nan nan nan nan nan nan nan nan nan 43 43 39 39 34 35 36 38 39 40 40 40 41 41 37 35 33 32 31 31 32 31 32 nan nan nan nan nan nan nan nan nan nan nan nan nan nan nan nan nan nan nan nan nan nan nan nan nan nan nan nan nan nan nan nan nan nan nan nan nan nan nan nan nan nan
nan nan nan nan nan nan nan nan nan nan nan nan nan nan nan nan nan nan nan nan 44 35 36 nan nan 32 33 38 40 40 40 39 39 38 39 38 35 33 33 32 32 32 33 nan nan nan nan nan nan nan nan nan nan nan nan nan nan nan nan nan nan nan nan nan nan nan nan nan nan nan nan nan nan nan nan nan nan nan nan nan nan nan nan nan nan nan
nan nan nan nan nan nan nan nan nan nan nan nan nan nan nan nan nan nan nan nan nan 42 44 nan 40 38 38 40 41 42 41 40 38 38 37 37 35 33 33 35 35 35 36 nan nan nan nan nan nan nan nan nan nan nan nan nan nan nan nan nan nan nan nan nan nan nan nan nan nan nan nan nan nan nan nan nan nan nan nan nan nan nan nan nan nan nan
nan nan nan nan nan nan nan nan nan nan nan nan nan nan nan nan nan nan nan nan nan 41 47 42 43 43 41 40 40 40 42 42 42 40 40 37 35 35 34 35 37 38 40 nan nan nan nan nan nan nan nan nan nan nan nan nan nan nan nan nan nan nan nan nan nan nan nan nan nan nan nan nan nan nan nan nan nan nan nan nan nan nan nan nan nan nan
nan nan nan nan nan nan nan nan nan nan nan nan nan nan nan nan nan nan nan nan 39 48 45 43 44 48 40 42 42 42 44 46 44 44 44 42 40 38 37 38 39 41 41 40 nan nan nan nan nan nan nan nan nan nan nan nan nan nan nan nan nan nan nan nan nan nan nan nan nan nan nan nan nan nan nan nan nan nan nan nan nan nan nan nan nan nan
nan nan nan nan nan nan 47 nan nan nan nan nan nan nan nan nan nan nan nan nan 36 nan 34 33 34 42 38 40 39 37 38 39 40 40 41 41 41 41 42 42 39 38 40 42 nan nan nan nan nan nan nan nan nan nan nan nan nan nan nan nan nan nan nan nan nan nan nan nan nan nan nan nan nan nan nan nan nan nan nan nan nan nan nan nan nan nan
nan nan nan nan nan 55 55 47 nan 49 53 60 60 58 53 nan nan nan nan 34 nan nan 37 34 29 31 33 36 37 37 38 38 36 37 38 nan nan nan nan nan nan 39 40 41 nan nan nan nan nan nan nan nan nan nan nan nan nan nan nan nan nan nan nan nan nan nan nan nan nan nan nan nan nan nan nan nan nan nan nan nan nan nan nan nan nan nan
nan nan 44 nan 41 46 51 48 47 46 50 55 59 62 64 59 55 49 nan 48 56 51 44 45 44 42 39 40 41 41 39 38 36 35 36 36 37 nan nan nan nan nan nan nan nan nan nan nan nan nan nan nan nan nan nan nan nan nan nan nan nan nan nan nan nan nan nan nan nan nan nan nan nan nan nan nan nan nan nan nan nan nan nan nan nan nan
nan nan 48 nan nan nan 42 46 44 45 51 57 60 64 65 61 54 48 44 44 48 47 49 53 52 45 42 43 43 40 38 39 37 35 nan nan nan nan nan nan nan nan nan nan nan nan nan nan nan nan nan nan nan nan nan nan nan nan nan nan nan nan nan nan nan nan nan nan nan nan nan nan nan nan nan nan nan nan nan nan nan nan nan nan nan nan
nan nan 44 nan nan nan 37 38 39 44 nan 56 59 60 60 58 53 49 50 51 43 49 50 46 37 42 41 41 42 37 37 38 37 nan nan nan 33 34 nan nan nan nan nan nan nan nan nan nan nan nan nan nan nan nan nan nan nan nan nan nan nan nan nan nan nan nan nan nan nan nan nan nan nan nan nan nan nan nan nan nan nan nan nan nan nan nan
nan nan nan nan nan nan 40 41 nan nan nan nan 54 57 52 57 56 53 50 51 53 51 43 43 46 45 41 40 40 36 37 36 36 nan nan nan nan nan nan nan nan nan nan nan nan nan nan nan nan nan nan nan nan nan nan nan nan nan nan nan nan nan nan nan nan nan nan nan nan nan nan nan nan nan nan nan nan nan nan nan nan nan nan nan nan nan
34 nan nan 38 nan nan 39 nan nan nan nan nan nan 56 60 63 61 nan 59 58 54 54 58 59 53 45 41 40 40 39 39 38 36 nan nan nan nan nan nan nan nan nan nan nan nan nan nan nan nan nan nan nan nan nan nan nan nan nan nan nan nan nan nan nan nan nan nan nan nan nan nan nan nan nan nan nan nan nan nan nan nan nan nan nan nan nan
34 30 28 nan nan nan nan nan nan nan nan nan 52 51 52 53 56 64 66 61 54 52 52 54 49 46 43 43 42 41 40 41 39 nan nan nan nan nan nan nan nan nan nan nan nan nan nan nan nan nan nan nan nan nan nan nan nan nan nan nan nan nan nan nan nan nan nan nan nan nan nan nan nan nan nan nan nan nan nan nan nan nan nan nan nan nan
nan nan nan nan nan nan nan nan nan nan nan nan nan 50 51 49 52 53 53 53 53 51 50 50 48 46 46 44 44 43 41 42 nan 32 nan nan nan nan nan nan nan nan nan nan nan nan nan nan nan nan nan nan nan nan nan nan nan nan nan nan nan nan nan nan nan nan nan nan nan nan nan nan nan nan nan nan nan nan nan nan nan nan nan nan nan nan
nan 33 nan nan nan nan nan nan nan nan nan nan nan nan 43 44 45 nan 50 51 53 52 48 49 nan nan 46 44 44 44 43 nan nan nan nan nan nan nan nan nan nan nan nan nan nan nan nan nan nan nan nan nan nan nan nan nan nan nan nan nan nan nan nan nan nan nan nan nan nan nan nan nan nan nan nan nan nan nan nan nan nan nan nan nan nan nan
nan nan nan nan nan nan nan nan nan nan nan nan 27 nan 39 40 nan nan nan nan 46 47 45 46 46 nan 43 42 42 42 38 36 nan nan nan nan nan nan nan nan nan nan nan nan nan nan nan nan nan nan nan nan nan nan nan nan nan nan nan nan nan nan nan nan nan nan nan nan nan nan nan nan nan nan nan nan nan nan nan nan nan nan nan nan nan nan
nan nan nan nan nan nan nan nan nan nan nan 29 29 nan nan 33 nan nan nan nan 36 38 41 41 44 nan nan nan 40 36 34 34 28 nan nan nan nan nan nan nan nan nan nan nan nan nan nan nan nan nan nan nan nan nan nan nan nan nan nan nan nan nan nan nan nan nan nan nan nan nan nan nan nan nan nan nan nan nan nan nan nan nan nan nan nan nan
nan nan nan nan nan nan nan nan nan nan nan nan 30 36 nan nan nan nan nan nan 35 34 nan 38 40 nan nan nan nan 35 nan nan nan nan nan nan nan nan nan nan nan nan nan nan nan nan nan nan nan nan nan nan nan nan nan nan nan nan nan nan nan nan nan nan nan nan nan nan nan nan nan nan nan nan nan nan nan nan nan nan nan nan nan nan nan nan
nan nan nan nan nan nan nan nan nan nan nan nan nan nan nan nan nan nan nan nan nan nan nan nan nan nan nan nan nan nan nan nan nan nan nan nan nan nan nan nan nan nan nan nan nan nan nan nan nan nan nan nan nan nan nan nan nan nan nan nan nan nan nan nan nan nan nan nan nan nan nan nan nan nan nan nan nan nan nan nan nan nan nan nan nan nan
nan nan nan nan nan nan nan nan nan nan nan nan nan nan nan nan nan nan nan nan nan nan nan nan nan nan nan nan nan nan nan nan nan nan nan nan nan nan nan nan nan nan nan nan nan nan nan nan nan nan nan nan nan nan nan nan nan nan nan nan nan nan nan nan nan nan nan nan nan nan nan nan nan nan nan nan nan nan nan nan nan nan nan nan nan nan
nan nan nan nan nan nan nan nan nan nan nan nan nan nan nan nan nan nan nan nan nan nan nan nan nan nan nan nan nan nan nan nan nan nan nan nan nan nan nan nan nan nan nan nan nan nan nan nan nan nan nan nan nan nan nan nan nan nan nan nan nan nan nan nan nan nan nan nan nan nan nan nan nan nan nan nan nan nan nan nan nan nan nan nan nan nan
nan nan nan nan nan nan nan nan nan nan nan nan nan nan nan nan nan nan nan nan nan nan nan nan nan nan nan nan nan nan nan nan 26 24 25 25 25 nan nan nan nan nan nan nan nan nan nan nan nan nan nan nan nan nan nan nan nan nan nan nan nan nan nan nan nan nan nan nan nan nan nan nan nan nan nan nan nan nan nan nan nan nan nan nan nan nan
nan nan nan nan nan nan nan nan nan nan nan nan nan nan nan nan nan nan nan nan nan nan nan nan nan nan nan nan nan nan nan nan 25 nan 24 24 nan nan nan nan nan nan nan nan nan nan nan nan nan nan nan nan nan nan nan nan nan nan nan nan nan nan nan nan nan nan nan nan nan nan nan nan nan nan nan nan nan nan nan nan nan nan nan nan nan nan
nan nan nan nan nan nan nan nan nan nan nan nan nan nan nan nan nan nan nan nan nan nan nan nan nan nan nan nan nan nan nan nan 25 25 25 24 nan nan nan nan nan nan nan nan nan nan nan nan nan nan nan nan nan nan nan nan nan nan nan nan nan nan nan nan nan nan nan nan nan nan nan nan nan nan nan nan nan nan nan nan nan nan nan nan nan nan
nan nan nan nan nan nan nan nan nan nan nan nan nan nan nan nan nan nan nan nan nan nan nan nan nan nan nan nan nan nan nan nan nan 26 26 nan nan nan nan nan nan nan nan nan nan nan nan nan nan nan nan nan nan nan nan nan nan nan nan nan nan nan nan nan nan nan nan nan nan nan nan nan nan nan nan nan nan nan nan nan nan nan nan nan nan nan
nan nan nan nan nan nan nan nan nan nan nan nan nan nan nan nan nan nan nan nan nan nan nan nan nan nan nan nan nan nan nan nan nan nan nan nan nan nan nan nan nan nan nan nan nan nan nan nan nan nan nan nan nan nan nan nan nan nan nan nan nan nan nan nan nan nan nan nan nan nan nan nan nan nan nan nan nan nan nan nan nan nan nan nan nan nan
nan nan nan nan nan nan nan nan nan nan nan nan nan nan nan nan nan nan nan nan nan nan nan nan nan nan nan nan nan nan nan nan nan nan nan nan nan nan nan nan nan nan nan nan nan nan nan nan nan nan nan nan nan nan nan nan nan nan nan nan nan nan nan nan nan nan nan nan nan nan nan nan nan nan nan nan nan nan nan nan nan nan nan nan nan nan
nan nan nan nan nan nan nan nan nan nan nan nan nan nan nan nan nan nan nan nan nan nan nan nan nan nan nan nan nan nan nan nan nan nan nan nan nan nan nan nan nan nan nan nan nan nan nan nan nan nan nan nan nan nan nan nan nan nan nan nan nan nan nan nan nan nan nan nan nan nan nan nan nan nan nan nan nan nan nan nan nan nan nan nan nan nan
Wind_Direction
nan nan nan nan nan nan nan nan nan nan nan nan nan nan nan nan nan nan nan nan nan nan nan nan nan nan nan 227 253 252 252 256 259 260 260 261 260 256 254 254 257 259 260 255 252 252 255 256 256 258 264 268 257 250 253 258 264 267 272 276 277 274 272 270 268 262 263 262 256 254 267 276 281 290 298 306 312 320 325 325 325 325 326 326 328 330
nan nan nan nan nan nan nan nan nan nan nan nan nan nan nan nan nan nan nan nan nan nan nan nan nan nan nan 209 248 242 256 264 262 262 265 263 260 256 261 263 262 261 257 256 251 251 252 254 256 261 265 264 258 245 247 252 260 264 266 272 275 273 272 272 271 269 266 265 268 274 282 287 290 294 298 305 310 319 320 318 317 319 319 321 325 326
nan nan nan nan nan nan nan nan nan nan nan nan nan nan nan nan nan nan nan nan nan nan nan nan nan nan nan 211 234 254 255 255 257 269 271 270 267 265 266 266 262 255 253 252 251 251 252 255 257 259 260 252 246 245 245 246 254 259 265 270 273 275 277 274 272 269 269 265 264 275 274 285 282 289 297 301 306 307 312 312 314 316 316 320 324 327
nan nan nan nan nan nan nan nan nan nan nan nan nan nan nan nan nan nan nan nan nan nan nan nan nan nan 198 210 223 222 236 232 233 241 248 254 266 268 270 265 258 258 259 258 256 255 254 255 256 256 254 251 249 245 242 243 249 255 262 265 267 270 270 269 270 274 281 280 270 264 273 273 286 288 288 293 294 295 296 305 313 316 319 323 326 326
nan nan nan nan nan nan nan nan nan nan nan nan nan nan nan nan nan nan nan nan nan nan nan nan nan 194 203 221 215 215 221 233 233 241 244 249 255 261 264 259 256 268 270 263 257 255 254 253 250 249 247 245 243 241 243 247 249 255 261 266 271 270 266 263 265 271 276 277 269 266 264 268 267 276 272 273 278 291 299 305 312 323 321 324 327 328
nan nan nan nan nan nan nan nan nan nan nan nan nan nan nan nan nan nan nan nan nan nan nan nan nan 200 198 217 234 228 228 227 232 244 248 256 262 264 267 261 261 269 265 258 253 251 253 253 248 243 241 238 232 231 235 243 248 252 254 257 258 258 257 255 253 258 261 262 271 268 264 260 269 268 264 267 279 284 289 299 307 311 316 320 323 326
nan nan nan nan nan nan nan nan nan nan nan nan nan nan nan nan nan nan nan nan nan nan nan nan nan 205 207 216 223 231 238 239 238 243 248 255 258 258 261 259 268 273 263 250 246 247 250 250 248 242 240 236 235 234 241 246 249 254 258 260 263 263 262 260 259 255 257 257 257 261 268 274 276 274 277 280 284 290 294 298 298 301 302 312 323 327
nan nan nan nan nan nan nan nan nan nan nan nan nan nan nan nan nan nan nan nan nan nan nan nan 210 231 222 217 227 242 247 248 247 248 249 250 254 255 253 263 268 263 258 254 249 247 248 247 248 245 239 238 236 238 243 247 249 252 256 260 262 264 263 262 261 256 255 259 258 260 263 266 264 267 271 275 280 283 286 285 283 287 298 304 306 309
nan nan nan nan nan nan nan nan nan nan nan nan nan nan nan nan nan nan nan nan nan nan nan nan 212 221 223 236 244 253 255 253 255 255 255 254 255 256 260 259 253 249 256 255 252 250 251 250 245 244 242 242 240 243 246 247 249 252 256 261 264 264 265 263 261 261 257 260 263 267 269 269 272 274 277 281 279 280 280 280 282 286 293 299 309 319
nan nan nan nan nan nan nan nan nan nan nan nan nan nan nan nan nan nan nan nan nan nan nan nan nan 219 216 229 246 244 259 263 257 256 255 257 260 263 261 255 249 248 257 259 255 251 249 251 246 243 243 246 245 248 248 250 252 252 256 260 263 264 266 265 261 262 263 263 265 265 266 267 269 271 273 275 274 278 283 282 285 292 296 303 307 315
nan nan nan nan nan nan nan nan nan nan nan nan nan nan nan nan nan nan nan nan nan nan nan nan nan 233 223 229 251 268 271 269 260 256 260 262 263 265 263 261 260 260 257 259 258 253 251 251 251 248 246 249 247 246 247 246 246 247 249 253 254 255 260 260 263 264 265 267 266 266 265 267 267 268 269 269 272 279 282 284 289 293 299 nan nan nan
nan nan nan nan nan nan nan nan nan nan nan nan nan nan nan nan nan nan nan nan nan nan nan nan nan nan 245 236 239 241 268 283 277 277 277 276 272 269 267 267 268 266 262 258 255 251 252 252 249 250 249 248 249 245 243 243 245 247 251 253 253 251 255 259 262 265 267 267 266 267 269 268 269 270 273 275 279 283 288 290 293 nan nan nan nan nan
nan nan nan nan nan nan nan nan nan nan nan nan nan nan nan nan nan nan nan nan nan nan nan nan nan 232 nan 234 247 262 271 265 275 273 277 277 274 273 270 269 264 264 264 257 250 250 248 248 251 253 252 249 247 247 246 247 249 252 254 256 257 255 258 261 264 265 266 266 266 268 269 270 272 273 nan nan 285 287 293 294 296 297 300 nan nan 310
nan nan nan nan nan nan nan nan nan nan nan nan nan nan nan nan nan nan nan nan nan nan nan nan nan 224 228 231 236 269 272 255 250 254 264 270 274 274 272 267 260 256 258 256 254 253 250 249 250 253 255 251 247 248 248 247 248 251 252 255 262 264 265 268 269 268 nan nan nan 269 272 nan nan nan nan nan nan nan nan nan 297 298 nan nan nan nan
nan nan nan nan nan nan nan nan nan nan nan nan nan nan nan nan nan nan nan nan nan nan nan nan nan nan 226 226 235 251 247 243 248 252 255 259 264 268 268 262 256 254 252 254 257 257 255 252 249 248 249 247 246 247 247 247 249 nan nan nan nan nan nan 273 nan nan nan nan nan nan nan nan nan nan nan nan nan nan nan nan nan nan nan nan nan nan
nan nan nan nan nan nan nan nan nan nan nan nan nan nan nan nan nan nan nan nan nan nan nan 199 209 210 219 223 237 243 241 243 253 255 254 257 259 263 265 260 256 254 254 253 255 253 250 247 245 245 244 243 243 244 245 249 254 257 nan nan nan nan nan nan nan nan nan nan nan nan nan nan nan nan nan nan nan nan nan nan nan nan nan nan nan nan
nan nan nan nan nan nan nan nan nan nan nan nan nan nan nan nan nan nan nan nan nan nan 199 201 214 215 216 219 230 242 242 244 250 251 250 254 255 254 256 257 257 255 255 254 253 250 248 242 241 242 nan nan 243 244 247 252 259 nan nan nan nan nan nan nan nan nan nan nan nan nan nan nan nan nan nan nan nan nan nan nan nan nan nan nan nan nan
nan nan nan nan nan nan nan nan nan nan nan nan nan nan nan nan nan nan nan nan nan nan 204 204 219 221 225 221 226 239 244 245 248 252 254 253 251 250 251 256 258 258 256 253 250 250 247 243 242 nan nan nan 242 243 250 258 nan nan nan nan nan nan nan nan nan nan nan nan nan nan nan nan nan nan nan nan nan nan nan nan nan nan nan nan nan nan
nan nan nan nan nan nan nan nan nan nan nan nan nan nan nan nan nan nan nan nan nan nan 210 209 219 224 224 235 238 247 252 253 256 257 261 262 258 253 254 257 255 255 255 251 248 248 246 242 nan nan nan 240 239 243 nan nan nan nan nan nan nan nan nan nan nan nan nan nan nan nan nan nan nan nan nan nan nan nan nan nan nan nan nan nan nan nan
nan nan nan nan nan nan nan nan nan nan nan nan nan nan nan nan nan nan nan nan nan 213 217 217 223 216 222 233 245 254 260 265 263 262 264 270 270 264 258 254 251 255 260 256 250 248 246 nan nan nan 239 241 243 nan nan nan nan nan nan nan nan nan nan nan nan nan nan nan nan nan nan nan nan nan nan nan nan nan nan nan nan nan nan nan nan nan
nan nan nan nan nan nan nan nan nan nan nan nan nan nan nan nan nan nan nan nan nan 218 220 225 221 217 221 236 240 250 254 260 262 258 257 264 268 265 260 255 253 258 260 259 257 253 nan nan nan nan nan nan nan nan nan nan nan nan nan nan nan nan nan nan nan nan nan nan nan nan nan nan nan nan nan nan nan nan nan nan nan nan nan nan nan nan
nan nan nan nan nan nan nan nan nan nan nan nan nan nan nan nan nan nan nan nan nan nan 222 228 228 227 226 229 246 250 252 255 255 256 258 260 262 261 258 256 259 259 259 257 254 248 nan nan nan nan nan nan nan nan nan nan nan nan nan nan nan nan nan nan nan nan nan nan nan nan nan nan nan nan nan nan nan nan nan nan nan nan nan nan nan nan
nan nan nan nan nan nan nan nan nan nan nan nan nan nan nan nan nan nan nan nan nan 212 221 224 235 230 231 229 247 252 252 251 253 256 256 255 255 255 256 257 255 255 253 250 248 245 nan nan nan nan nan nan nan nan nan nan nan nan nan nan nan nan nan nan nan nan nan nan nan nan nan nan nan nan nan nan nan nan nan nan nan nan nan nan nan nan
187 nan nan nan nan nan nan nan nan nan nan nan nan nan nan nan nan nan nan nan nan 218 218 214 223 224 223 237 246 248 250 251 252 256 257 252 252 253 256 257 255 246 242 242 nan nan nan nan nan nan nan nan nan nan nan nan nan nan nan nan nan nan nan nan nan nan nan nan nan nan nan nan nan nan nan nan nan nan nan nan nan nan nan nan nan nan
nan nan nan nan nan nan nan nan nan nan nan nan nan nan nan nan nan nan nan nan 220 216 227 nan nan 220 228 243 244 248 251 252 254 254 258 259 257 257 257 254 248 245 245 nan nan nan nan nan nan nan nan nan nan nan nan nan nan nan nan nan nan nan nan nan nan nan nan nan nan nan nan nan nan nan nan nan nan nan nan nan nan nan nan nan nan nan
nan nan nan nan nan nan nan nan nan nan nan nan nan nan nan nan nan nan nan nan nan 215 224 nan 225 225 232 242 247 250 252 252 252 254 254 262 266 263 258 255 250 247 247 nan nan nan nan nan nan nan nan nan nan nan nan nan nan nan nan nan nan nan nan nan nan nan nan nan nan nan nan nan nan nan nan nan nan nan nan nan nan nan nan nan nan nan
nan nan nan nan nan nan nan nan nan nan nan nan nan nan nan nan nan nan nan nan nan 218 222 221 245 246 246 249 252 255 257 259 258 259 262 263 264 263 260 257 254 250 249 nan nan nan nan nan nan nan nan nan nan nan nan nan nan nan nan nan nan nan nan nan nan nan nan nan nan nan nan nan nan nan nan nan nan nan nan nan nan nan nan nan nan nan
nan nan nan nan nan nan nan nan nan nan nan nan nan nan nan nan nan nan nan nan 221 228 218 226 250 252 249 251 255 257 258 258 257 260 262 262 262 261 258 258 255 252 250 249 nan nan nan nan nan nan nan nan nan nan nan nan nan nan nan nan nan nan nan nan nan nan nan nan nan nan nan nan nan nan nan nan nan nan nan nan nan nan nan nan nan nan
nan nan nan nan nan nan 191 nan nan nan nan nan nan nan nan nan nan nan nan nan 229 nan 234 245 251 256 253 254 258 260 263 263 263 263 262 262 260 258 257 256 254 253 252 251 nan nan nan nan nan nan nan nan nan nan nan nan nan nan nan nan nan nan nan nan nan nan nan nan nan nan nan nan nan nan nan nan nan nan nan nan nan nan nan nan nan nan
nan nan nan nan nan 190 192 195 nan 204 198 200 198 198 200 nan nan nan nan 223 nan nan 247 256 249 256 253 254 253 253 253 257 256 256 258 nan nan nan nan nan nan 251 251 252 nan nan nan nan nan nan nan nan nan nan nan nan nan nan nan nan nan nan nan nan nan nan nan nan nan nan nan nan nan nan nan nan nan nan nan nan nan nan nan nan nan nan
nan nan 184 nan 191 187 189 195 202 205 205 203 199 201 202 200 203 203 nan 214 222 222 235 242 239 236 225 239 247 250 252 254 257 263 266 264 262 nan nan nan nan nan nan nan nan nan nan nan nan nan nan nan nan nan nan nan nan nan nan nan nan nan nan nan nan nan nan nan nan nan nan nan nan nan nan nan nan nan nan nan nan nan nan nan nan nan
nan nan 191 nan nan nan 183 193 198 207 208 204 199 197 197 197 203 201 212 207 219 228 235 235 234 230 237 244 245 251 257 263 266 268 nan nan nan nan nan nan nan nan nan nan nan nan nan nan nan nan nan nan nan nan nan nan nan nan nan nan nan nan nan nan nan nan nan nan nan nan nan nan nan nan nan nan nan nan nan nan nan nan nan nan nan nan
nan nan 191 nan nan nan 180 189 194 203 nan 193 192 192 192 196 200 205 207 209 224 242 233 235 233 240 251 255 256 257 262 263 265 nan nan nan 260 261 nan nan nan nan nan nan nan nan nan nan nan nan nan nan nan nan nan nan nan nan nan nan nan nan nan nan nan nan nan nan nan nan nan nan nan nan nan nan nan nan nan nan nan nan nan nan nan nan
nan nan nan nan nan nan 181 189 nan nan nan nan 190 190 195 198 198 211 208 212 208 211 220 229 242 243 248 254 261 264 268 267 265 nan nan nan nan nan nan nan nan nan nan nan nan nan nan nan nan nan nan nan nan nan nan nan nan nan nan nan nan nan nan nan nan nan nan nan nan nan nan nan nan nan nan nan nan nan nan nan nan nan nan nan nan nan
201 nan nan 190 nan nan 187 nan nan nan nan nan nan 196 206 209 211 nan 214 211 216 223 232 236 240 244 244 244 247 246 249 251 251 nan nan nan nan nan nan nan nan nan nan nan nan nan nan nan nan nan nan nan nan nan nan nan nan nan nan nan nan nan nan nan nan nan nan nan nan nan nan nan nan nan nan nan nan nan nan nan nan nan nan nan nan nan
201 208 192 nan nan nan nan nan nan nan nan nan 197 197 202 207 206 217 213 208 215 223 229 236 242 245 247 248 244 240 241 241 239 nan nan nan nan nan nan nan nan nan nan nan nan nan nan nan nan nan nan nan nan nan nan nan nan nan nan nan nan nan nan nan nan nan nan nan nan nan nan nan nan nan nan nan nan nan nan nan nan nan nan nan nan nan
nan nan nan nan nan nan nan nan nan nan nan nan nan 203 208 211 209 206 218 214 213 223 230 235 240 246 247 246 250 250 247 241 nan 233 nan nan nan nan nan nan nan nan nan nan nan nan nan nan nan nan nan nan nan nan nan nan nan nan nan nan nan nan nan nan nan nan nan nan nan nan nan nan nan nan nan nan nan nan nan nan nan nan nan nan nan nan
nan 214 nan nan nan nan nan nan nan nan nan nan nan nan 215 215 212 nan 216 217 209 213 225 239 nan nan 252 250 254 258 255 nan nan nan nan nan nan nan nan nan nan nan nan nan nan nan nan nan nan nan nan nan nan nan nan nan nan nan nan nan nan nan nan nan nan nan nan nan nan nan nan nan nan nan nan nan nan nan nan nan nan nan nan nan nan nan
nan nan nan nan nan nan nan nan nan nan nan nan 215 nan 214 219 nan nan nan nan 214 219 226 240 250 nan 258 259 260 265 263 266 nan nan nan nan nan nan nan nan nan nan nan nan nan nan nan nan nan nan nan nan nan nan nan nan nan nan nan nan nan nan nan nan nan nan nan nan nan nan nan nan nan nan nan nan nan nan nan nan nan nan nan nan nan nan
nan nan nan nan nan nan nan nan nan nan nan 213 221 nan nan 222 nan nan nan nan 225 225 230 242 256 nan nan nan 258 262 270 274 273 nan nan nan nan nan nan nan nan nan nan nan nan nan nan nan nan nan nan nan nan nan nan nan nan nan nan nan nan nan nan nan nan nan nan nan nan nan nan nan nan nan nan nan nan nan nan nan nan nan nan nan nan nan
nan nan nan nan nan nan nan nan nan nan nan nan 224 226 nan nan nan nan nan nan 238 240 nan 247 253 nan nan nan nan 254 nan nan nan nan nan nan nan nan nan nan nan nan nan nan nan nan nan nan nan nan nan nan nan nan nan nan nan nan nan nan nan nan nan nan nan nan nan nan nan nan nan nan nan nan nan nan nan nan nan nan nan nan nan nan nan nan
nan nan nan nan nan nan nan nan nan nan nan nan nan nan nan nan nan nan nan nan nan nan nan nan nan nan nan nan nan nan nan nan nan nan nan nan nan nan nan nan nan nan nan nan nan nan nan nan nan nan nan nan nan nan nan nan nan nan nan nan nan nan nan nan nan nan nan nan nan nan nan nan nan nan nan nan nan nan nan nan nan nan nan nan nan nan
nan nan nan nan nan nan nan nan nan nan nan nan nan nan nan nan nan nan nan nan nan nan nan nan nan nan nan nan nan nan nan nan nan nan nan nan nan nan nan nan nan nan nan nan nan nan nan nan nan nan nan nan nan nan nan nan nan nan nan nan nan nan nan nan nan nan nan nan nan nan nan nan nan nan nan nan nan nan nan nan nan nan nan nan nan nan
nan nan nan nan nan nan nan nan nan nan nan nan nan nan nan nan nan nan nan nan nan nan nan nan nan nan nan nan nan nan nan nan nan nan nan nan nan nan nan nan nan nan nan nan nan nan nan nan nan nan nan nan nan nan nan nan nan nan nan nan nan nan nan nan nan nan nan nan nan nan nan nan nan nan nan nan nan nan nan nan nan nan nan nan nan nan
nan nan nan nan nan nan nan nan nan nan nan nan nan nan nan nan nan nan nan nan nan nan nan nan nan nan nan nan nan nan nan nan 249 248 254 257 259 nan nan nan nan nan nan nan nan nan nan nan nan nan nan nan nan nan nan nan nan nan nan nan nan nan nan nan nan nan nan nan nan nan nan nan nan nan nan nan nan nan nan nan nan nan nan nan nan nan
nan nan nan nan nan nan nan nan nan nan nan nan nan nan nan nan nan nan nan nan nan nan nan nan nan nan nan nan nan nan nan nan 254 nan 253 259 nan nan nan nan nan nan nan nan nan nan nan nan nan nan nan nan nan nan nan nan nan nan nan nan nan nan nan nan nan nan nan nan nan nan nan nan nan nan nan nan nan nan nan nan nan nan nan nan nan nan
nan nan nan nan nan nan nan nan nan nan nan nan nan nan nan nan nan nan nan nan nan nan nan nan nan nan nan nan nan nan nan nan 256 257 260 262 nan nan nan nan nan nan nan nan nan nan nan nan nan nan nan nan nan nan nan nan nan nan nan nan nan nan nan nan nan nan nan nan nan nan nan nan nan nan nan nan nan nan nan nan nan nan nan nan nan nan
nan nan nan nan nan nan nan nan nan nan nan nan nan nan nan nan nan nan nan nan nan nan nan nan nan nan nan nan nan nan nan nan nan 261 261 nan nan nan nan nan nan nan nan nan nan nan nan nan nan nan nan nan nan nan nan nan nan nan nan nan nan nan nan nan nan nan nan nan nan nan nan nan nan nan nan nan nan nan nan nan nan nan nan nan nan nan
nan nan nan nan nan nan nan nan nan nan nan nan nan nan nan nan nan nan nan nan nan nan nan nan nan nan nan nan nan nan nan nan nan nan nan nan nan nan nan nan nan nan nan nan nan nan nan nan nan nan nan nan nan nan nan nan nan nan nan nan nan nan nan nan nan nan nan nan nan nan nan nan nan nan nan nan nan nan nan nan nan nan nan nan nan nan
nan nan nan nan nan nan nan nan nan nan nan nan nan nan nan nan nan nan nan nan nan nan nan nan nan nan nan nan nan nan nan nan nan nan nan nan nan nan nan nan nan nan nan nan nan nan nan nan nan nan nan nan nan nan nan nan nan nan nan nan nan nan nan nan nan nan nan nan nan nan nan nan nan nan nan nan nan nan nan nan nan nan nan nan nan nan
nan nan nan nan nan nan nan nan nan nan nan nan nan nan nan nan nan nan nan nan nan nan nan nan nan nan nan nan nan nan nan nan nan nan nan nan nan nan nan nan nan nan nan nan nan nan nan nan nan nan nan nan nan nan nan nan nan nan nan nan nan nan nan nan nan nan nan nan nan nan nan nan nan nan nan nan nan nan nan nan nan nan nan nan nan nan